NWS Regional Weather Roundup - New England Area

000
ASUS41 KBOX 191010
RWRBOX

REGIONAL WEATHER ROUNDUP
NATIONAL WEATHER SERVICE BOSTON/NORTON MA
600 AM EDT SUN AUG 19 2018

NOTE:  "FAIR" INDICATES FEW OR NO CLOUDS BELOW 12,000 FEET WITH NO
SIGNIFICANT WEATHER AND/OR OBSTRUCTIONS TO VISIBILITY.

MAZALL-191100-
EASTERN MASSACHUSETTS

CITY           SKY/WX    TMP DP  RH WIND       PRES   REMARKS
BOSTON         MOCLDY    68  60  75 NE16      29.95R
BEVERLY        CLOUDY    66  63  90 N6        29.95R
LAWRENCE       FAIR      66  61  84 N5        29.99R
BEDFORD        CLOUDY    66  61  84 N8        29.95R
BLUE HILL        N/A     62  61  96 NE12G20   29.95R
NORWOOD        CLOUDY    68  63  84 NE6       29.94R
MARSHFIELD     MOCLDY    68  63  83 NE12G17   29.93S
PLYMOUTH       LGT RAIN  66  62  87 NE10      29.93R
TAUNTON        CLOUDY    66  63  90 VRB5      29.93R
NEW BEDFORD    CLOUDY    65  64  97 N7        29.91R
$$

MAZALL-191100-
CAPE COD AND THE ISLANDS

CITY           SKY/WX    TMP DP  RH WIND       PRES   REMARKS
FALMOUTH       CLOUDY    64  63  94 NE14      29.92R
HYANNIS        CLOUDY    67  64  90 NE10      29.89R
CHATHAM        CLOUDY    67  62  84 NE9       29.91R
PROVINCETOWN   CLOUDY    66  62  87 NE14      29.93R
NANTUCKET      CLOUDY    66  65  96 NE17      29.88R
MARTHAS VNYRD  CLOUDY    67  65  93 NE10      29.89R
$$

MAZALL-191100-
CENTRAL AND WESTERN MASSACHUSETTS

CITY           SKY/WX    TMP DP  RH WIND       PRES   REMARKS
WORCESTER      CLOUDY    62  61  96 NE9       29.98R
FITCHBURG      CLOUDY    64  61  90 N5        29.99R
ORANGE         MOCLDY    64  61  90 CALM      29.99R
SPRINGFIELD    CLOUDY    65  60  82 CALM      29.96R
WESTFIELD      CLOUDY    65  63  93 NE5       29.97R
NORTH ADAMS    CLOUDY    67  57  70 E8        29.97R
PITTSFIELD     CLOUDY    64  57  78 E6        29.98R
$$

RIZALL-191100-
RHODE ISLAND

CITY           SKY/WX    TMP DP  RH WIND       PRES   REMARKS
PROVIDENCE     CLOUDY    66  63  90 N10       29.93R
NEWPORT        CLOUDY    66  62  87 NE10G18     N/A
BLOCK ISLAND   CLOUDY    67  63  87 NE14G20   29.91R
SMITHFIELD     CLOUDY    64  62  93 NE13      29.95R
WESTERLY       CLOUDY    67  65  93 VRB6      29.91R
$$

CTZALL-191100-
CONNECTICUT

CITY           SKY/WX    TMP DP  RH WIND       PRES   REMARKS
BRADLEY INTL   MOCLDY    65  63  93 N9        29.94S
HARTFORD       CLOUDY    67  63  87 N12       29.93R
BRIDGEPORT     CLOUDY    68  65  90 NE8       29.91R
DANBURY        CLOUDY    66  63  90 NE7G17    29.94R
GROTON         LGT RAIN  66  64  93 NE10      29.90R
NEW HAVEN      CLOUDY    68  65  90 NE9       29.92R FOG
CHESTER        LGT RAIN  64  64 100 N9        29.93R
MERIDEN        CLOUDY    66  62  87 N6        29.93R
WILLIMANTIC    CLOUDY    67  63  87 N10       29.94R
OXFORD         CLOUDY    64  61  90 NE18G25   29.95R
$$

MEZ002-015-021-024-NHZ003-005-008-011-012-014-VTZ005-008-191100-
NORTHERN NEW ENGLAND

CITY           SKY/WX    TMP DP  RH WIND       PRES   REMARKS
PORTLAND ME    FAIR      59  58  96 N6        29.99R
BANGOR ME      FAIR      55  54  96 N5        30.01R
CONCORD NH     FAIR      59  57  93 CALM      30.00R
MANCHESTER NH  FAIR      65  61  87 N6        29.97R
NASHUA NH      FAIR      63  63 100 NW3       29.99R
PORTSMOUTH NH  PTCLDY    62  59  88 N7        29.96R
JAFFREY NH     FAIR      63  61  93 CALM      30.01R
KEENE NH       FAIR     N/A N/A N/A CALM      29.99R
BURLINGTON VT  FOG       59  58  96 CALM      30.02R VSB 1/8
MT. WASHINGTON FOG       45  45 100 E23G31      N/A  VSB 0
$$

NYZ052-076-191100-
EASTERN NEW YORK

CITY           SKY/WX    TMP DP  RH WIND       PRES   REMARKS
ALBANY         MOCLDY    68  61  78 N6        29.98R
NEW YORK CITY  CLOUDY    71  65  81 NE23      29.89R
$$

ANZALL-191100-
MARINE OBSERVATIONS

STATION/POSITION TIME  TEMP    WIND        PRES    VSBY  WAVE
                       AIR SEA DIR/SP/G                  HT/PER
                 (UTC) (F)     (DEG/KT/KT) (MB)    (MI)  (FT/S)
BOSTON BUOY      0850   68 69   30/ 17/ 21 1012.5          4/ 6
BUZZARDS BAY     0900   66      30/ 21/ 23 1012.2R
NANTUCKET SOUND  0950   69 77   30/ 17/ 21 1011.9R         2/ 4
MASS BAY-STELLWA 0904   67 68   40/ 16/ 19 1011.9R  1 7/8  4/ 5
ISLE OF SHOALS   0900   65      20/ 15/ 17 1013.6R
S OF BLOCK IS    0943      77                N/A           5/ 5
$$

......................KEY.........................
  SKY/WX - SKY CONDITION/PRESENT WEATHER
  TMP    - TEMPERATURE IN FAHRENHEIT
  DWPT   - DEWPOINT IN FAHRENHEIT
  RH     - RELATIVE HUMIDITY IN PERCENT
  WIND   - DIRECTION AND SPEED IN MPH
  PRES   - MEAN SEA LEVEL PRESSURE IN INCHES OF HG
  WCI    - WIND CHILL INDEX
  VSB    - VISIBILITY IN MILES
  HX     - HEAT INDEX
  TC     - TEMPERATURE IN CELSIUS
  VRB    - VARIABLE WIND DIRECTION
  N/A    - NOT AVAILABLE

NWS BOX Regional Weather Roundup - New England Area